OBJECT AC (43784 NORAD) Tracking and Keplerian Element Data

This shows tracking and keplerian element data for the satellite.

Feedback or suggestion? Click here.




ElementValue
Catalog43784
NameOBJECT AC
Epoch Orbit664
Epoch Day17.19327629
Epoch Year2019
RAAN90.8869
Inclination97.7596
Eccentricity0.0016528
Argument of Perigee116.4035
Mean Anonmoly243.8885
Mean Motion14.95025906
Decay Rate9E-07
L11 43784U 18099AC 19017.19327629 .00000090 00000-0 13501-4 0 9993
L22 43784 97.7596 90.8869 0016528 116.4035 243.8885 14.95025906 6648

Live tracking and technical data element details for OBJECT AC (NORAD 43784). OBJECT AC can be tracked NOW for your location showing map with azimuth and elevation plus other details from your city location.

Track the satellite on the map from your city or location and see movement details for azimuth, elevation, latitude, longitude, range, height, and movement on the map or in text.







IsCatalogInMostPopularTable: catalog: 43784, numindb: 20
Update: records affected: 1



GetName: 43784 OBJECT AC

Hit Count: updated at: Fri, 18 Jan 2019 22:55:10 GMT